Flag for U.S.A. Weather past 2 weeks in Sitka, Alaska, U.S.A.

35 °F

Passing clouds.

Feels Like: 32 °F
Forecast: 34 / 41 °F
Wind: 3 mph from East

Location: Sitka Airport

Current Time: Nov 25, 2015 at 7:22:22 AM

Latest Report: Nov 25, 2015 at 6:53 AM

Visibility: 10 mi

Pressure: 30.47 "Hg

Humidity: 96%

Dew point: 34 °F

Location of SitkaLocation

Historic Weather in Sitka — Graph


Sitka temperature yesterday

Maximum temperature yesterday: 40 °F (at 1:53 PM)
Minimum temperature yesterday: 35 °F (at 12:53 AM)
Average temperature yesterday: 37 °F

Past Weeks' High & Low Weather Summary

High49 °F (Nov 21, 2:53 AM)100% (Nov 10, 5:53 AM)30.52 "Hg (Nov 10, 5:53 AM)
Low29 °F (Nov 23, 6:53 AM)57% (Nov 17, 1:53 PM)28.79 "Hg (Nov 12, 10:53 PM)
Average38 °F90%29.76 "Hg
* Reported Nov 10 5:53 AM — Nov 25 5:53 AM, Sitka, Weather by CustomWeather, © 2015

Note: Actual official high and low records may vary slightly from our data, if they occured in-between our weather recording intervals... More about our weather records


Sitka weather history for previous 24 hours

Time TempWeatherWind HumidityBarometerVisibility
5:53 AM
Wed, Nov 25
35 °FPassing clouds.5 mph96%30.48 "Hg10 mi
4:53 AM36 °FPassing clouds.No wind97%30.49 "Hg9 mi
3:53 AM37 °FOvercast.6 mph96%30.50 "Hg9 mi
2:53 AM38 °FPassing clouds.No wind93%30.50 "Hg10 mi
1:53 AM39 °FPassing clouds.No wind93%30.50 "Hg10 mi
12:53 AM38 °FOvercast.3 mph93%30.50 "Hg10 mi
11:53 PM
Tue, Nov 24
37 °FPassing clouds.3 mph96%30.52 "Hg10 mi
10:53 PM36 °FPassing clouds.3 mph100%30.51 "Hg9 mi
9:53 PM38 °FPassing clouds.5 mph97%30.51 "Hg8 mi
8:53 PM38 °FOvercast.No wind97%30.51 "Hg10 mi
7:53 PM38 °FOvercast.3 mph97%30.52 "Hg10 mi
6:53 PM38 °FOvercast.3 mph97%30.51 "Hg10 mi
5:53 PM39 °FMostly cloudy.No wind93%30.52 "Hg10 mi
4:53 PM37 °FMostly cloudy.5 mph96%30.51 "Hg10 mi
3:53 PM37 °FPassing clouds.6 mph93%30.50 "Hg10 mi
2:53 PM38 °FScattered clouds.3 mph97%30.51 "Hg10 mi
1:53 PM40 °FPartly sunny.No wind93%30.51 "Hg10 mi
12:53 PM38 °FOvercast.6 mph97%30.51 "Hg10 mi
11:53 AM38 °FLight rain. Fog.No wind97%30.51 "Hg4 mi
10:53 AM37 °FScattered clouds.7 mph96%30.52 "Hg10 mi
9:53 AM36 °FLight rain. Fog.3 mph97%30.50 "Hg6 mi
8:53 AM37 °FMore clouds than sun.No wind93%30.49 "Hg10 mi
7:53 AM36 °FLight rain. Mostly cloudy.5 mph97%30.48 "Hg10 mi
Weather by CustomWeather, © 2015

See weather overviewHow to use our weather pages